Dauntless Aviation
Greetings, Guest! To participate, [sign up for a free account] or [log in]
Airports South America Uruguay

Hospital Policial

Montevideo, URUGUAY

Airport Info
Edit

Location

Latitude / Longitude: 34°52'4"S / 56°9'6"W
  34°52.068'S / 56°9.114'W
  -34.8678 / -56.1519
Satellite photo at:
Airport distance calculator
From:
Weather Reports

METAR

SUAA
7.8nm NW
SUAA 041500Z 19008KT 9999 SCT025 11/01 Q1024
SUMU
8.1nm NE
SUMU 041500Z 18008KT 9999 BKN028 11/04 Q1023 NOSIG

TAF

SUAA
7.8nm NW
SUAA 041110Z 0412/0512 18010KT 9999 SCT020 BKN040 TX12/0418Z TN04/0510Z PROB30 TEMPO 0412/0418 5000 SHRA BECMG 0421/0423 CAVOK
SUMU
8.1nm NE
SUMU 041110Z 0412/0512 18010KT 9999 SCT020 BKN040 TX12/0418Z TN04/0510Z PROB30 TEMPO 0412/0418 5000 SHRA BECMG 0421/0423 CAVOK
Safelog

 

Dauntless Aviation

© 2007-2015 Dauntless Aviation, all rights reserved
Information provided via PilotNav comes from a variety of official and unofficial data sources. As errors are possible, do not use PilotNav for primary flight planning purposes. Verify any information that you receive via PilotNav with current and canonical charts and other official documents. The material in this database is subject to database copyrights held by Dauntless Aviation and may not be copied without the express permission of Dauntless Aviation - licenses for use of part of all of this data are available for purchase; enquire via the Dauntless Aviation helpdesk. A number of mechanisms and markers exist in the database to protect against and identify infringement / copyright. Automated queries against this website are stictly prohibited, and all activity is logged and analyzed.